Kezdőlap
METAR-TAF:

METAR-TAF

Repülőterek :

Bologna Guglielmo Marconi repülőtér

Bologna, Olaszország

földrajzi szélesség: 44-32N, földrajzi hosszúság: 011-18E, magasság: 36 m

Jelenlegi meteorológiai megfigyelések

A jelentés 14 perccel ezelõtt készült, 19:20 UTC
Különbözõ irányokból fújó szél 2 kt
Hőmérséklet 9°C
Páratartalom 76%
Légköri nyomás 1019 hPa
Látótávolság: 8000 m

METAR: LIPE 191920Z VRB02KT 8000 NSC 09/05 Q1019

Idő: 20:34 (19:34 UTC)

Előrejelzés

A jelentés 2 órával és 34 perccel ezelõtt készült, 17:00 UTC
Az előrejelzés 19-én 18 óra UTC és 20-én 18 óra UTC között érvényes
Nyugat-északnyugati szél 8 kt
Látótávolság: 7000 m
Szórványos felhőzet 3000 lábon

TAF: LIPE 191700Z 1918/2018 29008KT 7000 SCT030

Meteorológiai megfigyelések és előrejelzések több, mint 4000 repülőtéren (METAR és TAF jelentéseket).

A térképen piros és sárga pontok jelzik az elérhető meteorológiai állomásokat.

Mozgassa az egeret a pont fölött, hogy megjelenjen az állomás neve.

Azután kattintson az időjárási megfigyelések és előrejelzések megtekintéséhez.

A térkép megváltoztatása: kattintson a fekete keresztel jelölt zöld gombra ráközelítéshez, a vonallal jelölt zöld gombra távolításhoz, vagy a zöld nyilakra a szomszédos térképek eléréséhez.


METAR-TAF: